Flag for Canada Weather past 2 weeks in Belleville, Ontario, Canada

Now
77 °F

Broken clouds.


Feels Like: 79 °F
Forecast: 60 / 76 °F
Wind: 17 mph from West

Location: Trenton

Current Time: May 27, 2015 at 9:02:37 PM

Latest Report: May 27, 2015 at 8:00 PM


Visibility: 15 mi

Pressure: 29.94 "Hg

Humidity: 51%

Dew point: 57 °F

Location of BellevilleLocation

Historic Weather in Belleville — Graph

°F

Belleville temperature yesterday

Maximum temperature yesterday: 79 °F (at 3:00 PM)
Minimum temperature yesterday: 61 °F (at 12:00 AM)
Average temperature yesterday: 70 °F

Past Weeks' High & Low Weather Summary

 TemperatureHumidityPressure
High79 °F (May 26, 3:00 PM)100% (May 16, 6:00 AM)30.47 "Hg (May 16, 6:00 AM)
Low28 °F (May 23, 6:00 AM)28% (May 20, 8:00 PM)29.81 "Hg (May 21, 7:00 PM)
Average58 °F67%30.08 "Hg
* Reported May 12 8:00 PM — May 27 8:00 PM, Belleville, Weather by CustomWeather, © 2015

Note: Actual official high and low records may vary slightly from our data, if they occured in-between our weather recording intervals... More about our weather records

Advertising

Belleville weather history for previous 24 hours

 ConditionsComfort  
Time TempWeatherWind HumidityBarometerVisibility
8:00 PM
Wed, May 27
77 °FBroken clouds.17 mph51%29.94 "Hg15 mi
7:00 PM77 °FBroken clouds.16 mph54%29.94 "Hg15 mi
6:00 PM75 °FPassing clouds.17 mph57%29.92 "Hg15 mi
5:00 PM79 °FPassing clouds.16 mph54%29.93 "Hg15 mi
4:00 PM79 °FScattered clouds.13 mph58%29.94 "Hg15 mi
3:00 PM77 °FPartly sunny.12 mph65%29.96 "Hg15 mi
2:00 PMN/APartly sunny.N/AN/A29.97 "Hg15 mi
1:00 PM75 °FPartly sunny.20 mph69%29.99 "Hg15 mi
12:00 PM73 °FPartly sunny.17 mph74%29.99 "Hg12 mi
11:00 AM72 °FPartly sunny.17 mph78%29.98 "Hg12 mi
10:00 AM68 °FPartly sunny.13 mph88%29.98 "Hg12 mi
9:00 AM64 °FMostly cloudy.10 mph94%29.97 "Hg9 mi
8:00 AM64 °FLight rain. Mostly cloudy.8 mph94%29.97 "Hg8 mi
7:45 AM64 °FLight rain. Mostly cloudy.7 mph94%29.96 "Hg8 mi
7:00 AM64 °FPartly sunny.3 mph88%29.96 "Hg8 mi
6:00 AM63 °FPassing clouds.6 mph94%29.95 "Hg7 mi
5:00 AM63 °FPassing clouds.7 mph94%29.94 "Hg8 mi
4:00 AM64 °FPartly cloudy.5 mph88%29.93 "Hg15 mi
3:00 AM64 °FFog.3 mph94%29.94 "Hg4 mi
2:00 AM64 °FFog.No wind100%29.96 "Hg4 mi
1:00 AM64 °FFog.2 mph100%29.97 "Hg5 mi
12:00 AM66 °FPartly cloudy.3 mph94%29.98 "Hg15 mi
11:00 PM
Tue, May 26
68 °FPassing clouds.No wind88%29.98 "Hg15 mi
10:00 PM70 °FPassing clouds.5 mph83%29.99 "Hg15 mi
9:00 PM72 °FPartly sunny.2 mph78%29.98 "Hg15 mi
Weather by CustomWeather, © 2015

See weather overviewHow to use our weather pages